FW7410 Eastsound WA US current weather conditions

sailwx.info

Wind from 180

Air temperature 14.4° C
Dewpoint 8.6° C

Last reported at 2020-Jul-08 02:57 UTC.
Time now 2020-Jul-08 03:39 UTC

Location: N 48°42' W 122°52'.
View on Google Maps.

See reports from other nearby stations

  
Tides and Currents Weather Stations Pressure Air Temp Water Temp Dewpoint Dewpoint Depression Visibility Wind Speed Wind Dir Waves Ship Positions
date/time (UTC)wind fromknots sea level pressurealtimeterstation pressurevisibilityair tempwater tempwave heightnotes
2020-Jul-08 02:57 180 14.4
2020-Jul-08 02:48 180 0 14.4
2020-Jul-08 02:38 180 0 14.4
2020-Jul-08 02:28 180 0 14.4
2020-Jul-08 02:18 180 14.4
2020-Jul-08 02:09 180 15.0
2020-Jul-08 02:00 180 15.0
2020-Jul-08 01:51 180 15.0
2020-Jul-08 01:41 135 15.0
2020-Jul-08 01:31 017 15.0
2020-Jul-08 01:22 022 0 15.0
2020-Jul-08 01:12 067 15.6
2020-Jul-08 00:58 337 15.6
2020-Jul-08 00:49 157 1 15.6
2020-Jul-08 00:39 337 16.1
2020-Jul-08 00:30 112 16.1
2020-Jul-08 00:20 104 16.7
2020-Jul-08 00:11 306 16.1
2020-Jul-08 00:01 157 16.1
2020-Jul-07 23:52 154 1 16.1
2020-Jul-07 23:42 162 0 16.1
2020-Jul-07 23:32 264 16.1
2020-Jul-07 23:22 180 16.1
2020-Jul-07 23:12 022 0 16.1
2020-Jul-07 23:03 198 0 16.1
2020-Jul-07 22:53 139 0 16.1
2020-Jul-07 22:43 028 0 15.6
2020-Jul-07 22:34 157 1 15.6
2020-Jul-07 22:24 161 0 16.1
2020-Jul-07 22:14 157 15.6
2020-Jul-07 22:05 091 1 16.1
2020-Jul-07 21:55 118 0 15.6
2020-Jul-07 21:46 105 0 15.6
2020-Jul-07 21:37 014 16.1
2020-Jul-07 21:27 097 0 16.1
2020-Jul-07 20:58 013 0 16.1
2020-Jul-07 20:49 037 0 16.7
2020-Jul-07 20:39 055 0 15.6
2020-Jul-07 20:29 056 16.1
2020-Jul-07 20:20 004 0 16.7
2020-Jul-07 17:12 248 0 13.9
2020-Jul-07 17:02 175 0 13.9
2020-Jul-07 16:52 149 0 13.9
2020-Jul-07 16:43 185 13.3
2020-Jul-07 16:34 230 13.3
2020-Jul-07 16:24 304 12.8
2020-Jul-07 16:14 180 11.7
2020-Jul-07 16:04 209 0 11.1
2020-Jul-07 13:12 157 0 11.1
2020-Jul-07 13:02 151 11.1
2020-Jul-07 12:52 182 1 10.6
2020-Jul-07 12:43 177 0 11.1
2020-Jul-07 12:33 180 11.1
2020-Jul-07 12:24 157 1 11.1
2020-Jul-07 12:14 157 1 11.1
2020-Jul-07 12:05 157 11.1
2020-Jul-07 11:55 157 11.1
2020-Jul-07 11:46 157 1 11.1
2020-Jul-07 11:36 157 1 11.1
2020-Jul-07 11:26 180 1 11.1
2020-Jul-07 11:16 157 2 11.1
2020-Jul-07 11:07 022 11.1
2020-Jul-07 10:58 339 11.1
2020-Jul-07 10:49 180 11.1
2020-Jul-07 10:39 180 11.7
2020-Jul-07 10:30 180 1 11.7
2020-Jul-07 10:20 180 0 11.7
2020-Jul-07 10:11 180 2 11.7
2020-Jul-07 10:01 180 3 11.7
2020-Jul-07 09:52 180 2 11.7
2020-Jul-07 09:43 180 3 11.7
2020-Jul-07 09:33 180 4 11.7
2020-Jul-07 09:24 180 3 11.7
2020-Jul-07 09:14 173 3 11.7
2020-Jul-07 09:04 180 3 12.2
2020-Jul-07 08:55 180 4 12.2
2020-Jul-07 08:45 180 2 12.2
2020-Jul-07 08:35 180 2 12.2
2020-Jul-07 08:25 180 4 12.2
2020-Jul-07 08:15 180 4 12.2
2020-Jul-07 08:06 180 4 12.2
2020-Jul-07 07:56 180 3 12.2
2020-Jul-07 07:46 180 3 12.2
2020-Jul-07 07:37 172 4 12.2
2020-Jul-07 07:27 173 4 12.2
2020-Jul-07 07:18 177 5 12.2
2020-Jul-07 07:09 180 4 12.2
2020-Jul-07 06:59 180 5 12.2
2020-Jul-07 06:49 180 6 12.2
2020-Jul-07 06:40 180 5 12.8
2020-Jul-07 06:30 180 4 12.8
2020-Jul-07 06:21 180 4 12.8
2020-Jul-07 06:11 180 4 12.8
2020-Jul-07 06:02 180 4 13.3
2020-Jul-07 05:52 168 2 13.3
2020-Jul-07 05:43 142 1 13.3
2020-Jul-07 05:33 180 1 13.3
2020-Jul-07 05:23 162 2 13.3
2020-Jul-07 05:14 162 2 13.3
2020-Jul-07 05:04 169 2 13.3
2020-Jul-07 04:54 157 3 13.3
2020-Jul-07 04:45 157 3 13.3
2020-Jul-07 04:36 157 3 13.3
2020-Jul-07 04:27 161 4 13.3
2020-Jul-07 04:17 157 4 13.3
2020-Jul-07 04:08 180 4 13.3
2020-Jul-07 03:58 180 4 13.3
2020-Jul-07 03:49 169 4 13.9
2020-Jul-07 03:39 180 4 13.9
2020-Jul-07 03:29 180 4 13.9
2020-Jul-07 03:19 180 2 14.4
2020-Jul-07 03:10 180 3 14.4
2020-Jul-07 03:00 180 3 14.4
2020-Jul-07 02:50 180 2 14.4
2020-Jul-07 02:40 180 2 14.4
2020-Jul-07 02:30 180 4 14.4
2020-Jul-07 02:20 180 3 15.0
2020-Jul-07 02:10 171 4 15.6
2020-Jul-07 02:00 180 3 15.6
2020-Jul-07 01:51 172 3 15.6
2020-Jul-07 01:41 177 3 16.1
2020-Jul-07 01:31 166 2 16.7
2020-Jul-07 01:21 142 3 17.2
2020-Jul-07 01:12 157 2 17.2
2020-Jul-07 01:02 165 17.2
2020-Jul-07 00:52 170 2 17.2
2020-Jul-07 00:43 157 1 17.2
2020-Jul-07 00:33 157 0 17.8
2020-Jul-07 00:24 180 2 17.8
2020-Jul-07 00:14 155 0 17.8
2020-Jul-07 00:05 167 17.2
2020-Jul-06 23:56 163 1 17.2
2020-Jul-06 23:46 180 2 17.2
2020-Jul-06 23:36 154 1 17.2
2020-Jul-06 23:26 337 0 16.7
2020-Jul-06 23:16 134 0 16.7
2020-Jul-06 23:07 167 1 16.7
2020-Jul-06 22:57 157 2 16.7
2020-Jul-06 22:47 176 0 16.7
2020-Jul-06 22:37 157 16.7
2020-Jul-06 22:28 180 0 16.7
2020-Jul-06 22:19 157 0 16.1
2020-Jul-06 22:10 106 16.1
2020-Jul-06 22:01 033 0 16.1
2020-Jul-06 21:52 351 1 16.7
2020-Jul-06 21:42 120 1 17.2
2020-Jul-06 21:32 346 1 17.2
2020-Jul-06 21:23 360 1 17.2
2020-Jul-06 21:14 124 17.2
2020-Jul-06 21:04 201 1 17.8
2020-Jul-06 20:55 029 17.8
2020-Jul-06 20:46 219 17.8
2020-Jul-06 20:36 356 0 17.2
2020-Jul-06 20:26 076 2 15.0
2020-Jul-06 20:16 118 0 14.4
2020-Jul-06 20:07 256 15.0
2020-Jul-06 19:57 157 0 15.6
2020-Jul-06 19:47 157 16.1
2020-Jul-06 19:37 233 0 17.2
2020-Jul-06 19:28 341 1 17.8
2020-Jul-06 19:18 180 18.3
2020-Jul-06 19:09 139 17.8
2020-Jul-06 18:59 011 0 17.2
2020-Jul-06 18:50 107 0 16.7
2020-Jul-06 18:41 199 1 17.2
2020-Jul-06 18:31 025 0 17.8
2020-Jul-06 18:21 153 0 17.2
2020-Jul-06 18:12 149 1 17.2
2020-Jul-06 18:02 263 0 16.7
2020-Jul-06 17:53 122 0 16.7
2020-Jul-06 17:43 144 16.7
2020-Jul-06 17:34 124 16.7
2020-Jul-06 17:24 213 0 16.1
2020-Jul-06 17:14 134 0 16.1
2020-Jul-06 17:04 103 15.6
2020-Jul-06 16:54 308 0 15.0
2020-Jul-06 16:44 176 14.4
2020-Jul-06 16:35 060 0 14.4
2020-Jul-06 16:26 009 0 13.9
2020-Jul-06 16:17 134 13.9
2020-Jul-06 16:08 185 13.3
2020-Jul-06 15:58 168 13.3
2020-Jul-06 15:48 172 0 12.8
2020-Jul-06 15:38 157 1 12.8
2020-Jul-06 15:29 180 0 12.8
2020-Jul-06 15:19 180 0 12.8
2020-Jul-06 15:10 180 1 12.8
2020-Jul-06 15:01 180 1 12.8
2020-Jul-06 14:52 180 1 13.3
2020-Jul-06 14:42 180 1 13.3
2020-Jul-06 14:32 180 1 13.3
2020-Jul-06 14:23 180 13.3
2020-Jul-06 14:13 202 1 13.3
2020-Jul-06 14:03 201 1 12.8
2020-Jul-06 13:53 156 1 13.3
2020-Jul-06 13:43 189 13.3
2020-Jul-06 13:34 270 12.8
2020-Jul-06 13:25 301 0 12.2
2020-Jul-06 13:15 315 0 12.2
2020-Jul-06 13:05 139 12.2
2020-Jul-06 12:55 157 12.2
2020-Jul-06 12:46 093 11.7
2020-Jul-06 12:37 090 11.7
2020-Jul-06 12:28 180 11.7
2020-Jul-06 12:18 180 11.7
2020-Jul-06 12:08 180 0 11.7
2020-Jul-06 11:58 180 2 11.7
2020-Jul-06 11:48 180 3 11.1
2020-Jul-06 11:39 180 2 11.1
2020-Jul-06 11:29 180 2 11.1
2020-Jul-06 11:20 180 1 11.7
2020-Jul-06 11:11 186 1 12.2
2020-Jul-06 11:01 180 0 12.2
2020-Jul-06 10:52 180 12.8
2020-Jul-06 10:42 180 12.8
2020-Jul-06 10:32 180 12.8
2020-Jul-06 10:22 218 12.8
2020-Jul-06 10:13 157 12.8
2020-Jul-06 10:03 157 12.8
2020-Jul-06 09:53 157 12.8
2020-Jul-06 09:43 157 13.3
2020-Jul-06 09:34 157 13.3
2020-Jul-06 09:24 157 1 13.3
2020-Jul-06 09:14 180 13.3
2020-Jul-06 09:05 180 0 13.3
2020-Jul-06 08:56 180 1 13.3
2020-Jul-06 08:47 180 1 13.3
2020-Jul-06 08:38 180 0 13.3
2020-Jul-06 08:29 180 1 13.3
2020-Jul-06 08:20 202 13.3
2020-Jul-06 08:11 241 0 13.3
2020-Jul-06 08:01 202 13.3
2020-Jul-06 07:51 196 0 13.3
2020-Jul-06 07:42 202 13.9
2020-Jul-06 07:32 202 0 13.9
2020-Jul-06 07:22 202 1 13.9
2020-Jul-06 07:12 169 2 13.9
2020-Jul-06 07:03 157 0 13.9
2020-Jul-06 06:53 174 3 13.9
2020-Jul-06 06:44 180 3 13.9
2020-Jul-06 06:35 157 1 13.3
2020-Jul-06 06:25 202 13.3
2020-Jul-06 06:15 202 13.9
2020-Jul-06 06:05 202 13.9
2020-Jul-06 05:55 202 13.9
2020-Jul-06 05:46 202 13.9
2020-Jul-06 05:36 202 13.9
2020-Jul-06 05:26 202 13.9
2020-Jul-06 05:16 202 13.9
2020-Jul-06 05:07 202 13.9
2020-Jul-06 04:57 202 13.9
2020-Jul-06 04:48 202 0 13.9
2020-Jul-06 04:38 202 0 13.9
2020-Jul-06 04:29 202 13.9
2020-Jul-06 04:19 202 13.9
2020-Jul-06 04:09 202 13.9
2020-Jul-06 03:59 202 14.4
2020-Jul-06 03:50 202 14.4
2020-Jul-06 03:40 202 14.4
2020-Jul-06 03:30 202 14.4
2020-Jul-06 03:21 202 15.0
2020-Jul-06 03:11 202 15.0
2020-Jul-06 03:02 202 0 15.6